Time,TemperatureF,DewpointF,PressureIn,WindDirection,WindDirectionDegrees,WindSpeedMPH,WindSpeedGustMPH,Humidity,HourlyPrecipIn,Conditions,Clouds,dailyrainin,SoftwareType,DateUTC
2013-02-02 00:00:00,9.8,7.0,30.08,NNW,330,3.0,4.0,88,0.00,,,0.00,VWS V14.01,2013-02-02 05:00:00,
2013-02-02 00:01:00,9.8,7.0,30.08,NW,321,2.0,3.0,88,0.00,,,0.00,VWS V14.01,2013-02-02 05:01:00,
2013-02-02 00:06:00,9.8,7.0,30.08,North,357,2.0,2.0,88,0.00,,,0.00,VWS V14.01,2013-02-02 05:06:00,
2013-02-02 00:11:00,9.7,6.9,30.08,NW,315,4.0,4.0,88,0.00,,,0.00,VWS V14.01,2013-02-02 05:11:00,
2013-02-02 00:16:00,9.7,6.9,30.08,North,350,2.0,4.0,88,0.00,,,0.00,VWS V14.01,2013-02-02 05:16:00,
2013-02-02 00:21:00,9.6,6.8,30.08,NW,308,1.0,2.0,88,0.00,,,0.00,VWS V14.01,2013-02-02 05:21:00,
2013-02-02 00:26:00,9.5,6.7,30.08,NNW,348,3.0,4.0,88,0.00,,,0.00,VWS V14.01,2013-02-02 05:26:00,
2013-02-02 00:31:00,9.4,6.6,30.08,NW,322,2.0,3.0,88,0.00,,,0.00,VWS V14.01,2013-02-02 05:31:00,
2013-02-02 00:36:00,9.4,6.6,30.08,North,357,2.0,4.0,88,0.00,,,0.00,VWS V14.01,2013-02-02 05:36:00,
2013-02-02 00:41:00,9.3,6.5,30.08,WNW,303,2.0,3.0,88,0.00,,,0.00,VWS V14.01,2013-02-02 05:41:00,
2013-02-02 00:46:00,9.2,6.4,30.08,NW,315,1.0,2.0,88,0.00,,,0.00,VWS V14.01,2013-02-02 05:46:00,
2013-02-02 00:51:00,9.2,6.4,30.07,NNW,334,1.0,2.0,88,0.00,,,0.00,VWS V14.01,2013-02-02 05:51:00,
2013-02-02 00:56:00,9.1,6.3,30.08,NW,323,2.0,2.0,88,0.00,,,0.00,VWS V14.01,2013-02-02 05:56:00,
2013-02-02 01:01:00,9.0,6.2,30.07,NNW,330,2.0,3.0,88,0.00,,,0.00,VWS V14.01,2013-02-02 06:01:00,
2013-02-02 01:06:00,9.0,6.2,30.07,NNW,340,2.0,2.0,88,0.00,,,0.00,VWS V14.01,2013-02-02 06:06:00,
2013-02-02 01:11:00,8.8,6.0,30.07,North,7,3.0,4.0,88,0.00,,,0.00,VWS V14.01,2013-02-02 06:11:00,
2013-02-02 01:16:00,8.7,5.9,30.07,North,350,4.0,4.0,88,0.00,,,0.00,VWS V14.01,2013-02-02 06:16:00,
2013-02-02 01:21:00,8.7,5.6,30.07,North,357,1.0,2.0,87,0.00,,,0.00,VWS V14.01,2013-02-02 06:21:00,
2013-02-02 01:26:00,8.6,5.5,30.07,NW,319,1.0,3.0,87,0.00,,,0.00,VWS V14.01,2013-02-02 06:26:00,
2013-02-02 01:31:00,8.5,5.4,30.07,NNW,339,2.0,4.0,87,0.00,,,0.00,VWS V14.01,2013-02-02 06:31:00,
2013-02-02 01:36:00,8.5,5.4,30.07,North,2,3.0,4.0,87,0.00,,,0.00,VWS V14.01,2013-02-02 06:36:00,
2013-02-02 01:42:00,8.5,5.4,30.06,NNW,346,3.0,3.0,87,0.00,,,0.00,VWS V14.01,2013-02-02 06:42:00,
2013-02-02 01:47:00,8.5,5.4,30.06,WNW,303,2.0,3.0,87,0.00,,,0.00,VWS V14.01,2013-02-02 06:47:00,
2013-02-02 01:52:00,8.4,5.6,30.06,NW,325,2.0,4.0,88,0.00,,,0.00,VWS V14.01,2013-02-02 06:52:00,
2013-02-02 01:57:00,8.4,5.6,30.06,NW,317,3.0,3.0,88,0.00,,,0.00,VWS V14.01,2013-02-02 06:57:00,
2013-02-02 02:02:00,8.4,5.6,30.06,North,357,3.0,4.0,88,0.00,,,0.00,VWS V14.01,2013-02-02 07:02:00,
2013-02-02 02:07:00,8.4,5.3,30.06,NW,317,3.0,4.0,87,0.00,,,0.00,VWS V14.01,2013-02-02 07:07:00,
2013-02-02 02:12:00,8.4,5.6,30.06,NW,313,1.0,3.0,88,0.00,,,0.00,VWS V14.01,2013-02-02 07:12:00,
2013-02-02 02:17:00,8.4,5.3,30.06,NNW,329,2.0,2.0,87,0.00,,,0.00,VWS V14.01,2013-02-02 07:17:00,
2013-02-02 02:22:00,8.3,5.2,30.06,NNW,338,1.0,3.0,87,0.00,,,0.00,VWS V14.01,2013-02-02 07:22:00,
2013-02-02 02:27:00,8.3,5.2,30.06,NNW,336,2.0,3.0,87,0.00,,,0.00,VWS V14.01,2013-02-02 07:27:00,
2013-02-02 02:32:00,8.3,5.5,30.06,North,357,3.0,4.0,88,0.00,,,0.00,VWS V14.01,2013-02-02 07:32:00,
2013-02-02 02:37:00,8.3,5.5,30.06,NW,307,1.0,2.0,88,0.00,,,0.00,VWS V14.01,2013-02-02 07:37:00,
2013-02-02 02:42:00,8.3,5.5,30.06,West,273,2.0,2.0,88,0.00,,,0.00,VWS V14.01,2013-02-02 07:42:00,
2013-02-02 02:47:00,8.3,5.7,30.06,NW,304,4.0,4.0,89,0.00,,,0.00,VWS V14.01,2013-02-02 07:47:00,
2013-02-02 02:52:00,8.3,5.7,30.06,NNW,333,2.0,2.0,89,0.00,,,0.00,VWS V14.01,2013-02-02 07:52:00,
2013-02-02 02:57:00,8.3,5.7,30.07,NNW,330,1.0,3.0,89,0.00,,,0.00,VWS V14.01,2013-02-02 07:57:00,
2013-02-02 03:02:00,8.3,5.7,30.07,NW,306,2.0,3.0,89,0.00,,,0.00,VWS V14.01,2013-02-02 08:02:00,
2013-02-02 03:07:00,8.3,5.7,30.06,West,263,2.0,2.0,89,0.00,,,0.00,VWS V14.01,2013-02-02 08:07:00,
2013-02-02 03:12:00,8.2,5.4,30.06,WNW,287,1.0,2.0,88,0.00,,,0.00,VWS V14.01,2013-02-02 08:12:00,
2013-02-02 03:17:00,8.2,5.4,30.06,North,352,4.0,5.0,88,0.00,,,0.00,VWS V14.01,2013-02-02 08:17:00,
2013-02-02 03:22:00,8.2,5.4,30.06,NW,319,0.0,1.0,88,0.00,,,0.00,VWS V14.01,2013-02-02 08:22:00,
2013-02-02 03:27:00,8.2,5.4,30.06,West,281,2.0,2.0,88,0.00,,,0.00,VWS V14.01,2013-02-02 08:27:00,
2013-02-02 03:32:00,8.2,5.4,30.05,West,275,1.0,1.0,88,0.00,,,0.00,VWS V14.01,2013-02-02 08:32:00,
2013-02-02 03:37:00,8.2,5.4,30.05,West,271,0.0,1.0,88,0.00,,,0.00,VWS V14.01,2013-02-02 08:37:00,
2013-02-02 03:42:00,8.2,5.4,30.05,West,272,0.0,1.0,88,0.00,,,0.00,VWS V14.01,2013-02-02 08:42:00,
2013-02-02 03:47:00,8.2,5.4,30.05,West,267,1.0,2.0,88,0.00,,,0.00,VWS V14.01,2013-02-02 08:47:00,
2013-02-02 03:52:00,8.2,5.4,30.05,West,266,0.0,1.0,88,0.00,,,0.00,VWS V14.01,2013-02-02 08:52:00,
2013-02-02 03:57:00,8.2,5.4,30.05,West,266,0.0,0.0,88,0.00,,,0.00,VWS V14.01,2013-02-02 08:57:00,
2013-02-02 04:02:00,8.2,5.4,30.05,West,273,1.0,1.0,88,0.00,,OVC031,0.00,VWS V14.01,2013-02-02 09:02:00,
2013-02-02 04:07:00,8.2,5.4,30.05,NW,315,1.0,2.0,88,0.00,,OVC031,0.00,VWS V14.01,2013-02-02 09:07:00,
2013-02-02 04:12:00,8.2,5.4,30.05,NNW,333,0.0,1.0,88,0.00,,OVC031,0.00,VWS V14.01,2013-02-02 09:12:00,
2013-02-02 04:17:00,8.3,5.2,30.05,NW,304,2.0,3.0,87,0.00,,OVC031,0.00,VWS V14.01,2013-02-02 09:17:00,
2013-02-02 04:22:00,8.5,5.4,30.05,West,278,2.0,2.0,87,0.00,,OVC031,0.00,VWS V14.01,2013-02-02 09:22:00,
2013-02-02 04:27:00,8.5,5.7,30.05,NW,304,0.0,1.0,88,0.00,,OVC031,0.00,VWS V14.01,2013-02-02 09:27:00,
2013-02-02 04:32:00,8.6,5.5,30.05,WNW,285,0.0,1.0,87,0.00,,OVC031,0.00,VWS V14.01,2013-02-02 09:32:00,
2013-02-02 04:37:00,8.7,5.6,30.04,NW,306,1.0,2.0,87,0.00,,OVC031,0.00,VWS V14.01,2013-02-02 09:37:00,
2013-02-02 04:42:00,8.7,5.9,30.04,NW,309,1.0,2.0,88,0.00,,OVC031,0.00,VWS V14.01,2013-02-02 09:42:00,
2013-02-02 04:47:00,8.7,5.9,30.04,NW,308,1.0,2.0,88,0.00,,OVC031,0.00,VWS V14.01,2013-02-02 09:47:00,
2013-02-02 04:52:00,8.7,5.9,30.04,WNW,293,1.0,1.0,88,0.00,,OVC031,0.00,VWS V14.01,2013-02-02 09:52:00,
2013-02-02 04:57:00,8.8,6.0,30.05,NW,315,1.0,1.0,88,0.00,,OVC031,0.00,VWS V14.01,2013-02-02 09:57:00,
2013-02-02 05:02:00,8.8,6.0,30.04,WNW,299,1.0,1.0,88,0.00,,OVC090,0.00,VWS V14.01,2013-02-02 10:02:00,
2013-02-02 05:07:00,8.9,5.8,30.05,WNW,293,0.0,1.0,87,0.00,,OVC090,0.00,VWS V14.01,2013-02-02 10:07:00,
2013-02-02 05:12:00,8.9,5.8,30.04,WNW,303,0.0,1.0,87,0.00,,OVC090,0.00,VWS V14.01,2013-02-02 10:12:00,
2013-02-02 05:17:00,8.9,5.8,30.04,NW,310,1.0,2.0,87,0.00,,OVC090,0.00,VWS V14.01,2013-02-02 10:17:00,
2013-02-02 05:22:00,8.9,6.1,30.04,NW,314,0.0,1.0,88,0.00,,OVC090,0.00,VWS V14.01,2013-02-02 10:22:00,
2013-02-02 05:27:00,8.9,6.1,30.04,WNW,294,1.0,3.0,88,0.00,,OVC090,0.00,VWS V14.01,2013-02-02 10:27:00,
2013-02-02 05:32:00,8.9,5.8,30.04,WNW,293,1.0,1.0,87,0.00,,OVC090,0.00,VWS V14.01,2013-02-02 10:32:00,
2013-02-02 05:37:00,8.9,5.8,30.04,NW,319,0.0,0.0,87,0.00,,OVC090,0.00,VWS V14.01,2013-02-02 10:37:00,
2013-02-02 05:42:00,8.9,5.8,30.04,NW,320,1.0,2.0,87,0.00,,OVC090,0.00,VWS V14.01,2013-02-02 10:42:00,
2013-02-02 05:47:00,8.8,5.7,30.04,NNW,331,1.0,1.0,87,0.00,,OVC090,0.00,VWS V14.01,2013-02-02 10:47:00,
2013-02-02 05:52:00,8.8,6.0,30.04,NNW,340,0.0,1.0,88,0.00,,OVC090,0.00,VWS V14.01,2013-02-02 10:52:00,
2013-02-02 05:57:00,8.8,6.0,30.04,NW,311,0.0,2.0,88,0.00,,OVC090,0.00,VWS V14.01,2013-02-02 10:57:00,
2013-02-02 06:02:00,8.8,6.0,30.04,NW,325,2.0,3.0,88,0.00,,OVC090,0.00,VWS V14.01,2013-02-02 11:02:00,
2013-02-02 06:07:00,8.9,6.1,30.04,NW,319,2.0,3.0,88,0.00,,OVC090,0.00,VWS V14.01,2013-02-02 11:07:00,
2013-02-02 06:12:00,9.0,6.4,30.04,NW,321,3.0,5.0,89,0.00,,OVC090,0.00,VWS V14.01,2013-02-02 11:12:00,
2013-02-02 06:17:00,9.1,6.5,30.04,NW,325,1.0,2.0,89,0.00,,OVC090,0.00,VWS V14.01,2013-02-02 11:17:00,
2013-02-02 06:22:00,9.1,6.3,30.04,NNW,329,3.0,3.0,88,0.00,,OVC090,0.00,VWS V14.01,2013-02-02 11:22:00,
2013-02-02 06:27:00,9.1,6.3,30.04,North,353,5.0,5.0,88,0.00,,OVC090,0.00,VWS V14.01,2013-02-02 11:27:00,
2013-02-02 06:32:00,9.0,6.2,30.04,NNW,339,4.0,4.0,88,0.00,,OVC095,0.00,VWS V14.01,2013-02-02 11:32:00,
2013-02-02 06:38:00,8.9,5.8,30.04,NNW,342,2.0,3.0,87,0.00,,OVC095,0.00,VWS V14.01,2013-02-02 11:38:00,
2013-02-02 06:43:00,8.7,5.6,30.04,NNW,327,2.0,3.0,87,0.00,,OVC095,0.00,VWS V14.01,2013-02-02 11:43:00,
2013-02-02 06:48:00,8.6,5.5,30.04,NW,310,0.0,1.0,87,0.00,,OVC095,0.00,VWS V14.01,2013-02-02 11:48:00,
2013-02-02 06:53:00,8.5,5.4,30.04,NNW,338,1.0,2.0,87,0.00,,OVC095,0.00,VWS V14.01,2013-02-02 11:53:00,
2013-02-02 06:58:00,8.3,5.2,30.04,NNW,329,1.0,1.0,87,0.00,,OVC095,0.00,VWS V14.01,2013-02-02 11:58:00,
2013-02-02 07:03:00,8.1,5.0,30.04,NNW,335,1.0,1.0,87,0.00,,OVC095,0.00,VWS V14.01,2013-02-02 12:03:00,
2013-02-02 07:08:00,7.9,4.8,30.04,NNW,335,0.0,1.0,87,0.00,,OVC095,0.00,VWS V14.01,2013-02-02 12:08:00,
2013-02-02 07:13:00,7.7,4.4,30.05,North,2,2.0,2.0,86,0.00,,OVC095,0.00,VWS V14.01,2013-02-02 12:13:00,
2013-02-02 07:18:00,7.4,4.1,30.05,NNW,346,1.0,1.0,86,0.00,,OVC095,0.00,VWS V14.01,2013-02-02 12:18:00,
2013-02-02 07:23:00,7.1,3.8,30.05,North,7,2.0,2.0,86,0.00,,OVC095,0.00,VWS V14.01,2013-02-02 12:23:00,
2013-02-02 07:28:00,6.8,3.5,30.05,North,11,3.0,3.0,86,0.00,,OVC095,0.00,VWS V14.01,2013-02-02 12:28:00,
2013-02-02 07:33:00,6.5,3.2,30.05,North,357,3.0,4.0,86,0.00,,OVC095,0.00,VWS V14.01,2013-02-02 12:33:00,
2013-02-02 07:38:00,6.4,3.4,30.05,NNW,340,3.0,3.0,87,0.00,,OVC095,0.00,VWS V14.01,2013-02-02 12:38:00,
2013-02-02 07:43:00,6.3,3.0,30.06,North,7,4.0,4.0,86,0.00,,OVC095,0.00,VWS V14.01,2013-02-02 12:43:00,
2013-02-02 07:48:00,6.3,3.0,30.06,NNE,17,4.0,5.0,86,0.00,,OVC095,0.00,VWS V14.01,2013-02-02 12:48:00,
2013-02-02 07:53:00,6.1,2.8,30.06,North,11,2.0,2.0,86,0.00,,OVC095,0.00,VWS V14.01,2013-02-02 12:53:00,
2013-02-02 07:58:00,6.0,2.5,30.06,NNE,17,3.0,3.0,85,0.00,,OVC095,0.00,VWS V14.01,2013-02-02 12:58:00,
2013-02-02 08:03:00,5.9,2.6,30.06,NNE,21,2.0,3.0,86,0.00,,OVC060,0.00,VWS V14.01,2013-02-02 13:03:00,
2013-02-02 08:08:00,5.9,2.6,30.06,North,357,0.0,2.0,86,0.00,,OVC060,0.00,VWS V14.01,2013-02-02 13:08:00,
2013-02-02 08:13:00,6.1,3.1,30.06,NNW,344,4.0,4.0,87,0.00,,OVC060,0.00,VWS V14.01,2013-02-02 13:13:00,
2013-02-02 08:18:00,6.3,3.5,30.06,North,2,3.0,4.0,88,0.00,,OVC060,0.00,VWS V14.01,2013-02-02 13:18:00,
2013-02-02 08:23:00,6.7,3.9,30.07,North,350,2.0,3.0,88,0.00,,OVC060,0.00,VWS V14.01,2013-02-02 13:23:00,
2013-02-02 08:28:00,6.8,4.0,30.07,North,357,4.0,4.0,88,0.00,,OVC060,0.00,VWS V14.01,2013-02-02 13:28:00,
2013-02-02 08:33:00,6.9,4.1,30.07,NNW,340,4.0,4.0,88,0.00,,OVC060,0.00,VWS V14.01,2013-02-02 13:33:00,
2013-02-02 08:38:00,6.9,3.9,30.06,NNW,347,2.0,3.0,87,0.00,,OVC060,0.00,VWS V14.01,2013-02-02 13:38:00,
2013-02-02 08:43:00,6.9,3.9,30.07,NNW,342,2.0,2.0,87,0.00,,OVC060,0.00,VWS V14.01,2013-02-02 13:43:00,
2013-02-02 08:48:00,6.9,3.9,30.07,North,349,0.0,2.0,87,0.00,,OVC060,0.00,VWS V14.01,2013-02-02 13:48:00,
2013-02-02 08:53:00,6.9,3.9,30.07,North,357,3.0,4.0,87,0.00,,OVC060,0.00,VWS V14.01,2013-02-02 13:53:00,
2013-02-02 08:58:00,7.0,4.2,30.07,NW,324,2.0,3.0,88,0.00,,OVC060,0.00,VWS V14.01,2013-02-02 13:58:00,
2013-02-02 09:03:00,7.6,4.6,30.07,NW,315,1.0,2.0,87,0.00,,OVC042,0.00,VWS V14.01,2013-02-02 14:03:00,
2013-02-02 09:08:00,7.9,4.8,30.07,NW,320,2.0,2.0,87,0.00,,OVC042,0.00,VWS V14.01,2013-02-02 14:08:00,
2013-02-02 09:13:00,8.1,5.0,30.07,NNW,330,2.0,2.0,87,0.00,,OVC042,0.00,VWS V14.01,2013-02-02 14:13:00,
2013-02-02 09:18:00,8.2,4.9,30.07,NW,304,1.0,1.0,86,0.00,,OVC042,0.00,VWS V14.01,2013-02-02 14:18:00,
2013-02-02 09:23:00,8.1,4.8,30.07,NNW,343,1.0,2.0,86,0.00,,OVC042,0.00,VWS V14.01,2013-02-02 14:23:00,
2013-02-02 09:28:00,8.4,4.8,30.07,NW,324,2.0,2.0,85,0.00,,OVC042,0.00,VWS V14.01,2013-02-02 14:28:00,
2013-02-02 09:33:00,8.3,4.7,30.07,NNW,345,3.0,4.0,85,0.00,,OVC042,0.00,VWS V14.01,2013-02-02 14:33:00,
2013-02-02 09:39:00,8.5,4.9,30.07,North,352,5.0,5.0,85,0.00,,OVC042,0.00,VWS V14.01,2013-02-02 14:39:00,
2013-02-02 09:44:00,8.5,4.9,30.07,NNW,348,4.0,4.0,85,0.00,,OVC042,0.00,VWS V14.01,2013-02-02 14:44:00,
2013-02-02 09:49:00,8.5,4.9,30.07,NNW,338,5.0,5.0,85,0.00,,OVC042,0.00,VWS V14.01,2013-02-02 14:49:00,
2013-02-02 09:54:00,8.5,4.9,30.07,NW,322,1.0,1.0,85,0.00,,OVC042,0.00,VWS V14.01,2013-02-02 14:54:00,
2013-02-02 09:59:00,8.6,5.0,30.07,NNW,348,2.0,4.0,85,0.00,,OVC042,0.00,VWS V14.01,2013-02-02 14:59:00,
2013-02-02 10:04:00,8.8,5.2,30.07,NNW,342,3.0,4.0,85,0.00,,SCT024,0.00,VWS V14.01,2013-02-02 15:04:00,
2013-02-02 10:09:00,8.4,4.6,30.07,NNE,24,0.0,2.0,84,0.00,,SCT024,0.00,VWS V14.01,2013-02-02 15:09:00,
2013-02-02 10:14:00,8.7,5.1,30.07,North,357,3.0,4.0,85,0.00,,SCT024,0.00,VWS V14.01,2013-02-02 15:14:00,
2013-02-02 10:19:00,8.8,5.0,30.07,NNE,19,1.0,2.0,84,0.00,,SCT024,0.00,VWS V14.01,2013-02-02 15:19:00,
2013-02-02 10:24:00,9.1,5.5,30.07,NNE,23,1.0,3.0,85,0.00,,SCT024,0.00,VWS V14.01,2013-02-02 15:24:00,
2013-02-02 10:29:00,9.1,5.3,30.07,NNW,331,2.0,4.0,84,0.00,,SCT024,0.00,VWS V14.01,2013-02-02 15:29:00,
2013-02-02 10:34:00,9.2,5.4,30.07,North,357,2.0,3.0,84,0.00,,SCT024,0.00,VWS V14.01,2013-02-02 15:34:00,
2013-02-02 10:39:00,9.3,5.4,30.07,NNW,348,3.0,3.0,84,0.00,,SCT024,0.00,VWS V14.01,2013-02-02 15:39:00,
2013-02-02 10:44:00,9.7,5.8,30.07,North,7,2.0,3.0,84,0.00,,SCT024,0.00,VWS V14.01,2013-02-02 15:44:00,
2013-02-02 10:49:00,9.6,5.5,30.08,North,350,2.0,4.0,83,0.00,,SCT024,0.00,VWS V14.01,2013-02-02 15:49:00,
2013-02-02 10:54:00,9.6,5.5,30.08,NNW,337,0.0,2.0,83,0.00,,SCT024,0.00,VWS V14.01,2013-02-02 15:54:00,
2013-02-02 10:59:00,9.8,5.7,30.08,NW,323,2.0,3.0,83,0.00,,SCT024,0.00,VWS V14.01,2013-02-02 15:59:00,
2013-02-02 11:04:00,9.8,5.4,30.08,NNW,336,1.0,4.0,82,0.00,,CLR,0.00,VWS V14.01,2013-02-02 16:04:00,
2013-02-02 11:09:00,10.0,5.9,30.08,NNW,336,2.0,2.0,83,0.00,,CLR,0.00,VWS V14.01,2013-02-02 16:09:00,
2013-02-02 11:14:00,10.5,6.1,30.08,North,353,2.0,2.0,82,0.00,,CLR,0.00,VWS V14.01,2013-02-02 16:14:00,
2013-02-02 11:19:00,10.8,6.4,30.08,North,357,2.0,3.0,82,0.00,,CLR,0.00,VWS V14.01,2013-02-02 16:19:00,
2013-02-02 11:24:00,10.9,6.2,30.08,NNE,12,4.0,4.0,81,0.00,,CLR,0.00,VWS V14.01,2013-02-02 16:24:00,
2013-02-02 11:29:00,11.0,6.1,30.08,NW,322,2.0,4.0,80,0.00,,CLR,0.00,VWS V14.01,2013-02-02 16:29:00,
2013-02-02 11:34:00,11.1,6.4,30.08,NNW,345,1.0,3.0,81,0.00,,CLR,0.00,VWS V14.01,2013-02-02 16:34:00,
2013-02-02 11:39:00,11.3,6.3,30.08,NNW,342,1.0,1.0,80,0.00,,CLR,0.00,VWS V14.01,2013-02-02 16:39:00,
2013-02-02 11:44:00,11.6,6.9,30.08,NNE,13,2.0,3.0,81,0.00,,CLR,0.00,VWS V14.01,2013-02-02 16:44:00,
2013-02-02 11:49:00,12.2,7.2,30.08,NNE,14,2.0,3.0,80,0.00,,CLR,0.00,VWS V14.01,2013-02-02 16:49:00,
2013-02-02 11:54:00,12.4,7.4,30.08,NNW,346,2.0,2.0,80,0.00,,CLR,0.00,VWS V14.01,2013-02-02 16:54:00,
2013-02-02 11:59:00,12.5,7.2,30.08,NE,34,0.0,1.0,79,0.00,,CLR,0.00,VWS V14.01,2013-02-02 16:59:00,
2013-02-02 12:04:00,12.9,7.9,30.08,NNE,26,0.0,2.0,80,0.00,,CLR,0.00,VWS V14.01,2013-02-02 17:04:00,
2013-02-02 12:09:00,12.5,7.0,30.07,NNE,27,0.0,1.0,78,0.00,,CLR,0.00,VWS V14.01,2013-02-02 17:09:00,
2013-02-02 12:14:00,12.6,7.3,30.07,NW,312,2.0,2.0,79,0.00,,CLR,0.00,VWS V14.01,2013-02-02 17:14:00,
2013-02-02 12:19:00,12.1,6.3,30.07,NE,44,2.0,2.0,77,0.00,,CLR,0.00,VWS V14.01,2013-02-02 17:19:00,
2013-02-02 12:24:00,12.9,7.3,30.07,NNE,13,2.0,2.0,78,0.00,,CLR,0.00,VWS V14.01,2013-02-02 17:24:00,
2013-02-02 12:29:00,13.4,7.3,30.07,North,11,2.0,3.0,76,0.00,,CLR,0.00,VWS V14.01,2013-02-02 17:29:00,
2013-02-02 12:34:00,13.2,7.1,30.07,NNW,344,2.0,2.0,76,0.00,,CLR,0.00,VWS V14.01,2013-02-02 17:34:00,
2013-02-02 12:39:00,13.9,7.8,30.06,North,357,1.0,1.0,76,0.00,,CLR,0.00,VWS V14.01,2013-02-02 17:39:00,
2013-02-02 12:44:00,14.0,7.0,30.06,NW,318,4.0,5.0,73,0.00,,CLR,0.00,VWS V14.01,2013-02-02 17:44:00,
2013-02-02 12:49:00,13.5,6.5,30.06,NE,44,4.0,5.0,73,0.00,,CLR,0.00,VWS V14.01,2013-02-02 17:49:00,
2013-02-02 12:54:00,12.9,6.2,30.06,NE,48,3.0,3.0,74,0.00,,CLR,0.00,VWS V14.01,2013-02-02 17:54:00,
2013-02-02 12:59:00,14.1,7.7,30.06,NNE,13,3.0,5.0,75,0.00,,CLR,0.00,VWS V14.01,2013-02-02 17:59:00,
2013-02-02 13:04:00,13.3,6.0,30.06,NNW,342,5.0,5.0,72,0.00,,CLR,0.00,VWS V14.01,2013-02-02 18:04:00,
2013-02-02 13:09:00,13.2,4.9,30.06,North,352,2.0,6.0,69,0.00,,CLR,0.00,VWS V14.01,2013-02-02 18:09:00,
2013-02-02 13:14:00,14.0,5.7,30.06,NNW,331,3.0,4.0,69,0.00,,CLR,0.00,VWS V14.01,2013-02-02 18:14:00,
2013-02-02 13:19:00,13.7,5.8,30.06,NNW,346,2.0,6.0,70,0.00,,CLR,0.00,VWS V14.01,2013-02-02 18:19:00,
2013-02-02 13:24:00,13.7,5.8,30.06,NNW,334,5.0,6.0,70,0.00,,CLR,0.00,VWS V14.01,2013-02-02 18:24:00,
2013-02-02 13:29:00,14.1,6.1,30.06,NNW,330,1.0,5.0,70,0.00,,CLR,0.00,VWS V14.01,2013-02-02 18:29:00,
2013-02-02 13:35:00,14.2,6.8,30.06,NNW,329,6.0,6.0,72,0.00,,CLR,0.00,VWS V14.01,2013-02-02 18:35:00,
2013-02-02 13:40:00,14.1,6.1,30.06,NNE,28,1.0,3.0,70,0.00,,CLR,0.00,VWS V14.01,2013-02-02 18:40:00,
2013-02-02 13:45:00,14.1,5.8,30.06,North,352,3.0,4.0,69,0.00,,CLR,0.00,VWS V14.01,2013-02-02 18:45:00,
2013-02-02 13:50:00,14.1,5.5,30.06,NW,317,4.0,7.0,68,0.00,,CLR,0.00,VWS V14.01,2013-02-02 18:50:00,
2013-02-02 13:55:00,14.4,6.4,30.06,NNE,19,5.0,7.0,70,0.00,,CLR,0.00,VWS V14.01,2013-02-02 18:55:00,
2013-02-02 14:00:00,13.5,4.9,30.06,NE,34,3.0,6.0,68,0.01,,CLR,0.01,VWS V14.01,2013-02-02 19:00:00,
2013-02-02 14:05:00,13.8,5.2,30.06,NNW,346,6.0,6.0,68,0.01,,SCT033,0.01,VWS V14.01,2013-02-02 19:05:00,
2013-02-02 14:10:00,14.3,5.7,30.06,WNW,298,6.0,7.0,68,0.01,,SCT033,0.01,VWS V14.01,2013-02-02 19:10:00,
2013-02-02 14:15:00,13.9,5.3,30.06,North,2,1.0,3.0,68,0.01,,SCT033,0.01,VWS V14.01,2013-02-02 19:15:00,
2013-02-02 14:20:00,14.1,5.8,30.06,NNE,14,5.0,7.0,69,0.01,,SCT033,0.01,VWS V14.01,2013-02-02 19:20:00,
2013-02-02 14:25:00,13.1,5.2,30.06,NNW,346,3.0,3.0,70,0.01,,SCT033,0.01,VWS V14.01,2013-02-02 19:25:00,
2013-02-02 14:30:00,13.3,5.7,30.06,NNW,336,4.0,5.0,71,0.01,,SCT033,0.01,VWS V14.01,2013-02-02 19:30:00,
2013-02-02 14:35:00,13.8,5.5,30.06,NW,315,6.0,7.0,69,0.01,,SCT033,0.01,VWS V14.01,2013-02-02 19:35:00,
2013-02-02 14:40:00,13.9,5.9,30.06,WNW,293,5.0,9.0,70,0.01,,SCT033,0.01,VWS V14.01,2013-02-02 19:40:00,
2013-02-02 14:45:00,13.9,5.6,30.06,NW,312,4.0,5.0,69,0.01,,SCT033,0.01,VWS V14.01,2013-02-02 19:45:00,
2013-02-02 14:50:00,14.2,6.5,30.06,NW,325,3.0,3.0,71,0.01,,SCT033,0.01,VWS V14.01,2013-02-02 19:50:00,
2013-02-02 14:55:00,14.1,5.8,30.06,North,357,3.0,3.0,69,0.01,,SCT033,0.01,VWS V14.01,2013-02-02 19:55:00,
2013-02-02 15:00:00,14.1,6.1,30.06,NNE,21,7.0,7.0,70,0.01,,SCT033,0.01,VWS V14.01,2013-02-02 20:00:00,
2013-02-02 15:05:00,14.4,7.0,30.06,North,352,1.0,2.0,72,0.00,,OVC036,0.01,VWS V14.01,2013-02-02 20:05:00,
2013-02-02 15:10:00,14.9,7.5,30.06,WNW,298,3.0,4.0,72,0.00,,OVC036,0.01,VWS V14.01,2013-02-02 20:10:00,
2013-02-02 15:15:00,14.3,6.9,30.06,NW,311,2.0,3.0,72,0.00,,OVC036,0.01,VWS V14.01,2013-02-02 20:15:00,
2013-02-02 15:20:00,14.5,7.1,30.06,NNE,22,6.0,6.0,72,0.00,,OVC036,0.01,VWS V14.01,2013-02-02 20:20:00,
2013-02-02 15:25:00,14.6,7.2,30.06,NNW,328,3.0,3.0,72,0.00,,OVC036,0.01,VWS V14.01,2013-02-02 20:25:00,
2013-02-02 15:30:00,14.1,7.1,30.06,NNW,329,3.0,3.0,73,0.00,,OVC036,0.01,VWS V14.01,2013-02-02 20:30:00,
2013-02-02 15:35:00,13.6,6.9,30.06,NW,304,3.0,5.0,74,0.00,,OVC036,0.01,VWS V14.01,2013-02-02 20:35:00,
2013-02-02 15:40:00,13.4,7.0,30.06,West,260,4.0,4.0,75,0.00,,OVC036,0.01,VWS V14.01,2013-02-02 20:40:00,
2013-02-02 15:45:00,13.0,6.9,30.05,West,276,2.0,4.0,76,0.00,,OVC036,0.01,VWS V14.01,2013-02-02 20:45:00,
2013-02-02 15:50:00,13.1,6.4,30.06,West,274,2.0,3.0,74,0.00,,OVC036,0.01,VWS V14.01,2013-02-02 20:50:00,
2013-02-02 15:55:00,12.8,6.4,30.06,West,265,3.0,5.0,75,0.00,,OVC036,0.01,VWS V14.01,2013-02-02 20:55:00,
2013-02-02 16:00:00,12.8,6.4,30.06,WSW,254,3.0,3.0,75,0.00,,OVC036,0.01,VWS V14.01,2013-02-02 21:00:00,
2013-02-02 16:05:00,13.0,6.9,30.06,WNW,292,1.0,2.0,76,0.00,,OVC032,0.01,VWS V14.01,2013-02-02 21:05:00,
2013-02-02 16:10:00,12.8,6.7,30.06,West,271,3.0,3.0,76,0.00,,OVC032,0.01,VWS V14.01,2013-02-02 21:10:00,
2013-02-02 16:15:00,12.7,6.6,30.06,West,271,3.0,5.0,76,0.00,,OVC032,0.01,VWS V14.01,2013-02-02 21:15:00,
2013-02-02 16:20:00,12.9,7.3,30.05,WNW,285,1.0,2.0,78,0.00,,OVC032,0.01,VWS V14.01,2013-02-02 21:20:00,
2013-02-02 16:25:00,12.8,7.0,30.05,NW,308,2.0,3.0,77,0.00,,OVC032,0.01,VWS V14.01,2013-02-02 21:25:00,
2013-02-02 16:30:00,12.8,7.0,30.06,West,271,3.0,4.0,77,0.00,,OVC032,0.01,VWS V14.01,2013-02-02 21:30:00,
2013-02-02 16:35:00,12.8,7.0,30.06,WSW,254,2.0,2.0,77,0.00,,OVC032,0.01,VWS V14.01,2013-02-02 21:35:00,
2013-02-02 16:40:00,12.6,6.8,30.06,WNW,286,2.0,3.0,77,0.00,,OVC032,0.01,VWS V14.01,2013-02-02 21:40:00,
2013-02-02 16:45:00,13.0,7.2,30.06,NW,325,0.0,2.0,77,0.00,,OVC032,0.01,VWS V14.01,2013-02-02 21:45:00,
2013-02-02 16:50:00,12.7,7.2,30.06,West,269,4.0,4.0,78,0.00,,OVC032,0.01,VWS V14.01,2013-02-02 21:50:00,
2013-02-02 16:55:00,13.0,7.2,30.06,NNW,335,5.0,5.0,77,0.00,,OVC032,0.01,VWS V14.01,2013-02-02 21:55:00,
2013-02-02 17:00:00,13.1,7.3,30.06,NNW,329,1.0,2.0,77,0.00,,OVC032,0.01,VWS V14.01,2013-02-02 22:00:00,
2013-02-02 17:05:00,12.5,7.0,30.06,West,281,2.0,2.0,78,0.00,,CLR,0.01,VWS V14.01,2013-02-02 22:05:00,
2013-02-02 17:10:00,12.3,7.0,30.06,WNW,283,0.0,2.0,79,0.00,,CLR,0.01,VWS V14.01,2013-02-02 22:10:00,
2013-02-02 17:16:00,12.1,6.6,30.06,West,273,2.0,3.0,78,0.00,,CLR,0.01,VWS V14.01,2013-02-02 22:16:00,
2013-02-02 17:21:00,11.7,6.7,30.06,West,272,1.0,1.0,80,0.00,,CLR,0.01,VWS V14.01,2013-02-02 22:21:00,
2013-02-02 17:26:00,11.5,6.8,30.06,West,272,0.0,0.0,81,0.00,,CLR,0.01,VWS V14.01,2013-02-02 22:26:00,
2013-02-02 17:31:00,11.4,6.7,30.07,West,272,0.0,0.0,81,0.00,,CLR,0.01,VWS V14.01,2013-02-02 22:31:00,
2013-02-02 17:36:00,10.1,5.4,30.07,West,272,0.0,0.0,81,0.00,,CLR,0.01,VWS V14.01,2013-02-02 22:36:00,
2013-02-02 17:41:00,9.0,4.9,30.07,West,272,0.0,0.0,83,0.00,,CLR,0.01,VWS V14.01,2013-02-02 22:41:00,
2013-02-02 17:46:00,7.5,3.4,30.07,West,272,0.0,1.0,83,0.00,,CLR,0.01,VWS V14.01,2013-02-02 22:46:00,
2013-02-02 17:51:00,7.6,4.3,30.07,West,272,0.0,1.0,86,0.00,,CLR,0.01,VWS V14.01,2013-02-02 22:51:00,
2013-02-02 17:56:00,7.2,3.9,30.07,West,272,0.0,1.0,86,0.00,,CLR,0.01,VWS V14.01,2013-02-02 22:56:00,
2013-02-02 18:01:00,6.9,3.9,30.07,West,272,1.0,1.0,87,0.00,,CLR,0.01,VWS V14.01,2013-02-02 23:01:00,
2013-02-02 18:06:00,6.7,3.7,30.07,West,272,0.0,1.0,87,0.00,,CLR,0.01,VWS V14.01,2013-02-02 23:06:00,
2013-02-02 18:11:00,6.7,3.7,30.07,WSW,256,2.0,2.0,87,0.00,,CLR,0.01,VWS V14.01,2013-02-02 23:11:00,
2013-02-02 18:16:00,5.8,2.5,30.07,SW,230,1.0,2.0,86,0.00,,CLR,0.01,VWS V14.01,2013-02-02 23:16:00,
2013-02-02 18:21:00,5.6,2.6,30.07,South,173,3.0,3.0,87,0.00,,CLR,0.01,VWS V14.01,2013-02-02 23:21:00,
2013-02-02 18:26:00,6.1,3.3,30.07,South,171,1.0,2.0,88,0.00,,CLR,0.01,VWS V14.01,2013-02-02 23:26:00,
2013-02-02 18:31:00,5.6,2.6,30.07,South,171,1.0,1.0,87,0.00,,CLR,0.01,VWS V14.01,2013-02-02 23:31:00,
2013-02-02 18:36:00,5.6,2.6,30.07,South,171,1.0,2.0,87,0.00,,CLR,0.01,VWS V14.01,2013-02-02 23:36:00,
2013-02-02 18:41:00,5.2,2.2,30.07,South,171,0.0,1.0,87,0.00,,CLR,0.01,VWS V14.01,2013-02-02 23:41:00,
2013-02-02 18:46:00,5.4,2.6,30.07,South,171,0.0,0.0,88,0.00,,CLR,0.01,VWS V14.01,2013-02-02 23:46:00,
2013-02-02 18:51:00,5.4,2.4,30.07,South,171,1.0,2.0,87,0.00,,CLR,0.01,VWS V14.01,2013-02-02 23:51:00,
2013-02-02 18:56:00,4.6,1.6,30.07,SSE,159,2.0,2.0,87,0.00,,CLR,0.01,VWS V14.01,2013-02-02 23:56:00,
2013-02-02 19:01:00,5.4,2.6,30.07,SSE,152,2.0,2.0,88,0.00,,CLR,0.01,VWS V14.01,2013-02-03 00:01:00,
2013-02-02 19:06:00,5.8,2.8,30.07,SSE,150,1.0,2.0,87,0.00,,FEW038,0.01,VWS V14.01,2013-02-03 00:06:00,
2013-02-02 19:11:00,5.6,2.3,30.07,SSE,150,0.0,1.0,86,0.00,,FEW038,0.01,VWS V14.01,2013-02-03 00:11:00,
2013-02-02 19:16:00,4.7,1.2,30.07,SSE,150,1.0,2.0,85,0.00,,FEW038,0.01,VWS V14.01,2013-02-03 00:16:00,
2013-02-02 19:21:00,4.3,1.0,30.08,SSE,150,2.0,2.0,86,0.00,,FEW038,0.01,VWS V14.01,2013-02-03 00:21:00,
2013-02-02 19:26:00,4.1,0.9,30.07,SSE,150,2.0,2.0,86,0.00,,FEW038,0.01,VWS V14.01,2013-02-03 00:26:00,
2013-02-02 19:31:00,4.1,1.1,30.07,ESE,116,3.0,3.0,87,0.00,,FEW038,0.01,VWS V14.01,2013-02-03 00:31:00,
2013-02-02 19:36:00,4.1,1.1,30.07,ESE,116,1.0,2.0,87,0.00,,FEW038,0.01,VWS V14.01,2013-02-03 00:36:00,
2013-02-02 19:41:00,3.9,0.9,30.07,ESE,116,1.0,1.0,87,0.00,,FEW038,0.01,VWS V14.01,2013-02-03 00:41:00,
2013-02-02 19:46:00,3.6,0.6,30.07,ESE,116,1.0,2.0,87,0.00,,FEW038,0.01,VWS V14.01,2013-02-03 00:46:00,
2013-02-02 19:51:00,3.0,0.0,30.07,ESE,116,2.0,2.0,87,0.00,,FEW038,0.01,VWS V14.01,2013-02-03 00:51:00,
2013-02-02 19:56:00,3.1,0.4,30.07,ESE,117,1.0,2.0,88,0.00,,FEW038,0.01,VWS V14.01,2013-02-03 00:56:00,
2013-02-02 20:01:00,4.0,1.5,30.07,ESE,117,0.0,1.0,89,0.00,,FEW038,0.01,VWS V14.01,2013-02-03 01:01:00,
2013-02-02 20:06:00,3.5,0.3,30.07,ESE,117,1.0,1.0,86,0.00,,OVC040,0.01,VWS V14.01,2013-02-03 01:06:00,
2013-02-02 20:11:00,2.9,-0.1,30.07,ESE,117,1.0,1.0,87,0.00,,OVC040,0.01,VWS V14.01,2013-02-03 01:11:00,
2013-02-02 20:16:00,3.1,0.4,30.07,ESE,117,2.0,3.0,88,0.00,,OVC040,0.01,VWS V14.01,2013-02-03 01:16:00,
2013-02-02 20:21:00,3.1,0.4,30.07,ESE,121,3.0,3.0,88,0.00,,OVC040,0.01,VWS V14.01,2013-02-03 01:21:00,
2013-02-02 20:26:00,3.2,0.2,30.07,SE,124,1.0,2.0,87,0.00,,OVC040,0.01,VWS V14.01,2013-02-03 01:26:00,
2013-02-02 20:31:00,3.8,1.0,30.07,SE,125,1.0,2.0,88,0.00,,OVC040,0.01,VWS V14.01,2013-02-03 01:31:00,
2013-02-02 20:37:00,3.9,0.9,30.07,SE,125,1.0,1.0,87,0.00,,OVC040,0.01,VWS V14.01,2013-02-03 01:37:00,
2013-02-02 20:42:00,3.5,0.3,30.06,SE,125,1.0,1.0,86,0.00,,OVC040,0.01,VWS V14.01,2013-02-03 01:42:00,
2013-02-02 20:47:00,3.4,0.4,30.06,ESE,119,2.0,3.0,87,0.00,,OVC040,0.01,VWS V14.01,2013-02-03 01:47:00,
2013-02-02 20:52:00,2.8,-0.4,30.06,ESE,117,1.0,2.0,86,0.00,,OVC040,0.01,VWS V14.01,2013-02-03 01:52:00,
2013-02-02 20:57:00,3.0,0.0,30.06,ESE,119,1.0,2.0,87,0.00,,OVC040,0.01,VWS V14.01,2013-02-03 01:57:00,
2013-02-02 21:02:00,3.4,0.4,30.06,ESE,119,1.0,1.0,87,0.00,,BKN042,0.01,VWS V14.01,2013-02-03 02:02:00,
2013-02-02 21:07:00,3.2,0.0,30.06,ESE,119,0.0,1.0,86,0.00,,BKN042,0.01,VWS V14.01,2013-02-03 02:07:00,
2013-02-02 21:12:00,3.5,0.8,30.06,ESE,120,1.0,1.0,88,0.00,,BKN042,0.01,VWS V14.01,2013-02-03 02:12:00,
2013-02-02 21:17:00,3.6,0.6,30.06,ESE,120,0.0,0.0,87,0.00,,BKN042,0.01,VWS V14.01,2013-02-03 02:17:00,
2013-02-02 21:22:00,3.8,0.8,30.06,ESE,118,1.0,2.0,87,0.00,,BKN042,0.01,VWS V14.01,2013-02-03 02:22:00,
2013-02-02 21:27:00,4.1,1.3,30.06,ESE,115,0.0,1.0,88,0.00,,BKN042,0.01,VWS V14.01,2013-02-03 02:27:00,
2013-02-02 21:32:00,4.0,1.0,30.05,ESE,113,2.0,2.0,87,0.00,,BKN042,0.01,VWS V14.01,2013-02-03 02:32:00,
2013-02-02 21:37:00,3.9,0.9,30.05,ESE,113,1.0,1.0,87,0.00,,BKN042,0.01,VWS V14.01,2013-02-03 02:37:00,
2013-02-02 21:42:00,4.2,1.4,30.05,ESE,113,0.0,1.0,88,0.00,,BKN042,0.01,VWS V14.01,2013-02-03 02:42:00,
2013-02-02 21:47:00,4.0,0.8,30.06,ESE,113,1.0,1.0,86,0.00,,BKN042,0.01,VWS V14.01,2013-02-03 02:47:00,
2013-02-02 21:52:00,4.0,1.0,30.06,ESE,113,0.0,0.0,87,0.00,,BKN042,0.01,VWS V14.01,2013-02-03 02:52:00,
2013-02-02 21:57:00,4.5,1.7,30.06,ESE,113,1.0,1.0,88,0.00,,BKN042,0.01,VWS V14.01,2013-02-03 02:57:00,
2013-02-02 22:02:00,4.6,1.6,30.06,ESE,113,0.0,1.0,87,0.00,,OVC038,0.01,VWS V14.01,2013-02-03 03:02:00,
2013-02-02 22:07:00,4.7,1.9,30.05,ESE,113,1.0,2.0,88,0.00,,OVC038,0.01,VWS V14.01,2013-02-03 03:07:00,
2013-02-02 22:12:00,4.8,2.0,30.05,ESE,120,2.0,2.0,88,0.00,,OVC038,0.01,VWS V14.01,2013-02-03 03:12:00,
2013-02-02 22:17:00,4.8,1.8,30.06,SSE,161,1.0,1.0,87,0.00,,OVC038,0.01,VWS V14.01,2013-02-03 03:17:00,
2013-02-02 22:22:00,4.4,1.4,30.06,SSE,162,0.0,1.0,87,0.00,,OVC038,0.01,VWS V14.01,2013-02-03 03:22:00,
2013-02-02 22:27:00,3.8,0.8,30.06,SSE,162,0.0,0.0,87,0.00,,OVC038,0.01,VWS V14.01,2013-02-03 03:27:00,
2013-02-02 22:32:00,3.6,0.9,30.05,SE,134,2.0,2.0,88,0.00,,OVC038,0.01,VWS V14.01,2013-02-03 03:32:00,
2013-02-02 22:37:00,3.1,0.4,30.05,ESE,121,0.0,2.0,88,0.00,,OVC038,0.01,VWS V14.01,2013-02-03 03:37:00,
2013-02-02 22:42:00,2.9,0.2,30.05,ESE,121,1.0,2.0,88,0.00,,OVC038,0.01,VWS V14.01,2013-02-03 03:42:00,
2013-02-02 22:47:00,2.2,-0.8,30.05,ESE,114,2.0,2.0,87,0.00,,OVC038,0.01,VWS V14.01,2013-02-03 03:47:00,
2013-02-02 22:52:00,2.0,-0.7,30.05,ESE,117,3.0,4.0,88,0.00,,OVC038,0.01,VWS V14.01,2013-02-03 03:52:00,
2013-02-02 22:57:00,2.0,-0.7,30.05,SE,131,0.0,2.0,88,0.00,,OVC038,0.01,VWS V14.01,2013-02-03 03:57:00,
2013-02-02 23:02:00,1.5,-1.5,30.05,SE,131,0.0,0.0,87,0.00,,OVC034,0.01,VWS V14.01,2013-02-03 04:02:00,
2013-02-02 23:07:00,1.3,-1.4,30.05,SE,131,1.0,1.0,88,0.00,,OVC034,0.01,VWS V14.01,2013-02-03 04:07:00,
2013-02-02 23:12:00,1.3,-1.4,30.05,SE,130,2.0,2.0,88,0.00,,OVC034,0.01,VWS V14.01,2013-02-03 04:12:00,
2013-02-02 23:17:00,1.3,-1.7,30.05,SE,130,1.0,1.0,87,0.00,,OVC034,0.01,VWS V14.01,2013-02-03 04:17:00,
2013-02-02 23:22:00,1.7,-1.0,30.05,SE,130,0.0,1.0,88,0.00,,OVC034,0.01,VWS V14.01,2013-02-03 04:22:00,
2013-02-02 23:27:00,2.1,-0.6,30.05,ESE,119,3.0,3.0,88,0.00,,OVC034,0.01,VWS V14.01,2013-02-03 04:27:00,
2013-02-02 23:32:00,2.2,-0.8,30.04,ESE,115,2.0,2.0,87,0.00,,OVC034,0.01,VWS V14.01,2013-02-03 04:32:00,
2013-02-02 23:37:00,2.8,0.1,30.04,SE,124,2.0,2.0,88,0.00,,OVC034,0.01,VWS V14.01,2013-02-03 04:37:00,
2013-02-02 23:42:00,2.8,-0.2,30.04,ESE,123,1.0,2.0,87,0.00,,OVC034,0.01,VWS V14.01,2013-02-03 04:42:00,
2013-02-02 23:47:00,2.5,-0.5,30.04,ESE,123,0.0,1.0,87,0.00,,OVC034,0.01,VWS V14.01,2013-02-03 04:47:00,
2013-02-02 23:52:00,3.1,0.4,30.04,ESE,123,2.0,2.0,88,0.00,,OVC034,0.01,VWS V14.01,2013-02-03 04:52:00,
2013-02-02 23:57:00,2.6,-0.6,30.04,ESE,121,2.0,2.0,86,0.00,,OVC034,0.01,VWS V14.01,2013-02-03 04:57:00,